Voltar ao catálogo

ST5-C

AtivoCiênciaLEO
NORAD 28982·PAYLOAD·🇺🇸 United States

Lançado Mar 22, 2006 de Vandenberg Space Force Base

Loading…

Próximas Passagens (próximas 24 horas)

TLE

AtualizadoSource: Space-Track

Época: Sep 14, 2026, 13:22 UTC

1 28982U 06008C   26257.55728594  .00060723  54385-5  62451-3 0  9999
2 28982 105.4528 172.8219 0726487  82.8827 285.4300 14.34922638568761

Acompanhe ST5-C em tempo real com AllMySat

Download on the App Store